Weather History for Slidell, LA

Change the Weather History Date:

Tuesday, May 29, 2012

  Actual Average (KNEW) Record (KNEW)
Temperature  
Mean Temperature 82 °F 79 °F  
Max Temperature 91 °F 88 °F 94 °F (2000)
Min Temperature 75 °F 71 °F 55 °F (1961)
Degree Days  
Heating Degree Days 0 0  
Month to date heating degree days 0  
Since 1 July heating degree days 1279  
Cooling Degree Days 18 14  
Month to date cooling degree days 331  
Year to date cooling degree days 588  
Growing Degree Days 32 (Base 50)    
Moisture  
Dew Point 71 °F    
Average Humidity 70    
Maximum Humidity 91    
Minimum Humidity 45    
Precipitation  
Precipitation 0.00 in 0.18 in 2.88 in (2013)
Month to date precipitation 4.25  
Year to date precipitation 23.86  
Snow  
Snow 0.00 in - - ()
Month to date snowfall  
Since 1 July snowfall  
Snow Depth -    
Sea Level Pressure  
Sea Level Pressure 29.88 in    
Wind  
Wind Speed 2 mph (WSW)    
Max Wind Speed 9 mph    
Max Gust Speed -    
Visibility 10 miles    
Events      
T = Trace of Precipitation, MM = Missing Value Source: NWS Daily Summary

Daily Weather History Graph

Daily Weather History Graph

Search for Another Location

Airport:

Trip Planner

Search our weather history database for the weather conditions in past years. The results will help you decide how hot, cold, wet, or windy it might be!

Date:

Astronomy

May. 29, 2012 Rise Set
Actual Time 5:58 AM CDT 7:55 PM CDT
Civil Twilight 5:31 AM CDT 8:22 PM CDT
Nautical Twilight 4:58 AM CDT 8:55 PM CDT
Astronomical Twilight 4:23 AM CDT 9:30 PM CDT
Moon 1:49 PM CDT (5/29) 1:25 AM CDT (5/29)
Length of Visible Light 14h 50m
Length of Day
13h 56m
First Quarter, 59% of the Moon is Illuminated
May 29
First Quarter
Jun 4
Full
Jun 11
Last Quarter
Jun 19
New
Jun 26
First Quarter

Hourly Weather History & Observations

Time (CDT) Temp. Heat Index Dew Point Humidity Pressure Visibility Wind Dir Wind Speed Gust Speed Precip Events Conditions
12:53 AM 75.9 °F - 73.0 °F 91% 29.87 in 7.0 mi Calm Calm - N/A   Partly Cloudy
1:53 AM 75.9 °F - 73.0 °F 91% 29.87 in 7.0 mi WSW 3.5 mph - N/A   Scattered Clouds
2:53 AM 78.1 °F - 72.0 °F 81% 29.86 in 9.0 mi Calm Calm - N/A   Mostly Cloudy
3:53 AM 77.0 °F - 73.0 °F 88% 29.87 in 9.0 mi Calm Calm - N/A   Partly Cloudy
4:53 AM 77.0 °F - 72.0 °F 84% 29.88 in 10.0 mi Variable 3.5 mph - N/A   Overcast
5:53 AM 75.9 °F - 71.1 °F 85% 29.90 in 10.0 mi Calm Calm - N/A   Scattered Clouds
6:53 AM 75.9 °F - 69.1 °F 79% 29.91 in 10.0 mi Calm Calm - N/A   Clear
7:53 AM 77.0 °F - 70.0 °F 79% 29.93 in 10.0 mi Variable 3.5 mph - N/A   Overcast
8:53 AM 79.0 °F - 70.0 °F 74% 29.92 in 10.0 mi Calm Calm - N/A   Mostly Cloudy
9:53 AM 82.9 °F 86.5 °F 69.1 °F 63% 29.92 in 10.0 mi Variable 5.8 mph - N/A   Clear
10:53 AM 84.9 °F 88.8 °F 69.1 °F 59% 29.93 in 10.0 mi Variable 4.6 mph - N/A   Scattered Clouds
11:53 AM 88.0 °F 93.8 °F 71.1 °F 57% 29.92 in 10.0 mi Calm Calm - N/A   Clear
12:53 PM 90.0 °F 96.4 °F 71.1 °F 54% 29.91 in 10.0 mi Variable 4.6 mph - N/A   Clear
1:53 PM 90.0 °F 96.4 °F 71.1 °F 54% 29.89 in 10.0 mi West 6.9 mph - N/A   Clear
2:53 PM 90.0 °F 95.4 °F 70.0 °F 52% 29.88 in 10.0 mi WSW 6.9 mph - N/A   Clear
3:53 PM 90.0 °F 93.6 °F 68.0 °F 48% 29.87 in 10.0 mi WSW 9.2 mph - N/A   Clear
4:53 PM 90.0 °F 92.4 °F 66.0 °F 45% 29.85 in 10.0 mi WSW 9.2 mph - N/A   Clear
5:53 PM 90.0 °F 94.5 °F 69.1 °F 50% 29.85 in 10.0 mi West 6.9 mph - N/A   Clear
6:53 PM 88.0 °F 92.1 °F 69.1 °F 53% 29.84 in 10.0 mi West 3.5 mph - N/A   Clear
7:53 PM 84.9 °F 89.4 °F 70.0 °F 61% 29.84 in 10.0 mi Calm Calm - N/A   Clear
8:53 PM 80.1 °F 83.8 °F 72.0 °F 76% 29.86 in 10.0 mi Calm Calm - N/A   Clear
9:53 PM 77.0 °F - 72.0 °F 84% 29.87 in 10.0 mi Calm Calm - N/A   Clear
10:53 PM 79.0 °F - 72.0 °F 79% 29.88 in 10.0 mi SSW 3.5 mph - N/A   Clear
11:53 PM 79.0 °F - 73.0 °F 82% 29.88 in 10.0 mi Calm Calm - N/A   Clear